Location: Peterborough
(44.3091°N, 78.3197°W)
Time: 23:48:14
(UTC-04:00)

S-56A Canister/Altair - Pass Details

Date: 25 March 2023
Orbit: 639 x 2492 km, 38.9° (Epoch: 02 June)

Event Time Altitude Azimuth Distance (km) Brightness Sun altitude
Rises 02:37:18 0° 285° (WNW) 6,128 12.0 -40.8°
Reaches altitude 10° 02:41:52 10° 277° (W) 5,156 11.5 -40.4°
Enters shadow 02:42:08 11° 276° (W) 5,103 11.5 -40.4°
